TimeCST,TemperatureF,Dew PointF,Humidity,Sea Level PressureIn,VisibilityMPH,Wind Direction,Wind SpeedMPH,Gust SpeedMPH,PrecipitationIn,Events,Conditions,WindDirDegrees,DateUTC
12:15 AM,38.5,28.0,66,29.94,10.0,South,8.1,19.6,N/A,,Clear,190,2013-01-19 06:15:00
12:35 AM,38.3,28.2,67,29.94,10.0,South,10.4,21.9,N/A,,Clear,190,2013-01-19 06:35:00
12:55 AM,38.3,28.2,67,29.95,10.0,SSW,11.5,18.4,N/A,,Clear,200,2013-01-19 06:55:00
1:15 AM,38.7,28.2,66,29.95,10.0,SSW,10.4,17.3,N/A,,Clear,200,2013-01-19 07:15:00
1:35 AM,38.3,28.2,67,29.95,10.0,SSW,10.4,18.4,N/A,,Clear,200,2013-01-19 07:35:00
1:55 AM,38.1,28.2,68,29.95,10.0,SSW,9.2,19.6,N/A,,Clear,200,2013-01-19 07:55:00
2:15 AM,38.1,28.2,68,29.95,10.0,SSW,10.4,21.9,N/A,,Clear,200,2013-01-19 08:15:00
2:35 AM,38.3,28.2,67,29.95,10.0,SSW,12.7,19.6,N/A,,Clear,200,2013-01-19 08:35:00
2:55 AM,37.8,28.2,68,29.95,10.0,SSW,9.2,16.1,N/A,,Clear,200,2013-01-19 08:55:00
3:15 AM,37.8,28.0,68,29.95,10.0,SSW,9.2,19.6,N/A,,Clear,200,2013-01-19 09:15:00
3:35 AM,37.4,28.0,69,29.95,10.0,SSW,10.4,18.4,N/A,,Clear,200,2013-01-19 09:35:00
3:55 AM,37.2,28.2,70,29.94,10.0,South,8.1,-,N/A,,Clear,190,2013-01-19 09:55:00
4:15 AM,37.0,28.2,70,29.94,10.0,South,6.9,-,N/A,,Clear,190,2013-01-19 10:15:00
4:35 AM,36.7,28.0,71,29.93,10.0,South,8.1,-,N/A,,Clear,180,2013-01-19 10:35:00
4:55 AM,36.0,28.2,73,29.93,10.0,South,9.2,-,N/A,,Clear,180,2013-01-19 10:55:00
5:15 AM,35.6,28.2,75,29.93,10.0,South,8.1,-,N/A,,Clear,180,2013-01-19 11:15:00
5:35 AM,36.0,28.4,74,29.92,10.0,South,9.2,-,N/A,,Clear,180,2013-01-19 11:35:00
6:35 AM,36.5,28.4,72,29.91,10.0,South,10.4,17.3,N/A,,Clear,190,2013-01-19 12:35:00
6:55 AM,36.7,28.4,72,29.91,10.0,South,10.4,17.3,N/A,,Clear,180,2013-01-19 12:55:00
7:15 AM,36.9,28.8,72,29.90,10.0,South,11.5,-,N/A,,Clear,180,2013-01-19 13:15:00
7:55 AM,37.9,29.1,71,29.89,10.0,South,9.2,-,N/A,,Clear,190,2013-01-19 13:55:00
8:15 AM,38.3,29.1,70,29.90,10.0,SSW,6.9,-,N/A,,Clear,200,2013-01-19 14:15:00
8:35 AM,38.7,29.3,69,29.89,10.0,South,12.7,20.7,N/A,,Clear,190,2013-01-19 14:35:00
9:35 AM,39.9,30.2,68,29.90,10.0,South,10.4,17.3,N/A,,Clear,190,2013-01-19 15:35:00
9:55 AM,41.0,30.6,66,29.89,10.0,South,9.2,17.3,N/A,,Clear,190,2013-01-19 15:55:00
10:15 AM,41.2,30.9,67,29.89,10.0,SSW,11.5,17.3,N/A,,Clear,200,2013-01-19 16:15:00
10:35 AM,42.4,31.5,65,29.87,10.0,South,12.7,17.3,N/A,,Clear,190,2013-01-19 16:35:00
11:15 AM,44.6,32.0,61,29.84,10.0,SSW,10.4,21.9,N/A,,Clear,210,2013-01-19 17:15:00
11:35 AM,45.9,32.5,60,29.83,10.0,SSW,13.8,20.7,N/A,,Clear,210,2013-01-19 17:35:00
11:55 AM,46.0,32.4,59,29.81,10.0,South,15.0,23.0,N/A,,Clear,190,2013-01-19 17:55:00
12:15 PM,45.5,32.4,60,29.80,10.0,SSW,12.7,19.6,N/A,,Clear,210,2013-01-19 18:15:00
12:35 PM,45.1,32.9,62,29.80,10.0,SSW,12.7,-,N/A,,Clear,210,2013-01-19 18:35:00
12:55 PM,45.0,33.1,63,29.79,10.0,SSW,9.2,-,N/A,,Clear,210,2013-01-19 18:55:00
1:15 PM,45.7,33.6,63,29.79,10.0,South,10.4,17.3,N/A,,Clear,190,2013-01-19 19:15:00
1:35 PM,45.5,33.8,64,29.78,10.0,SSW,10.4,18.4,N/A,,Clear,210,2013-01-19 19:35:00
1:55 PM,45.7,33.8,63,29.75,10.0,South,9.2,-,N/A,,Clear,170,2013-01-19 19:55:00
2:15 PM,45.9,34.3,64,29.78,10.0,SSW,12.7,17.3,N/A,,Clear,210,2013-01-19 20:15:00
2:35 PM,47.7,34.9,61,29.77,10.0,SSW,10.4,17.3,N/A,,Clear,210,2013-01-19 20:35:00
2:55 PM,49.1,34.9,58,29.76,10.0,SSW,12.7,16.1,N/A,,Clear,210,2013-01-19 20:55:00
3:15 PM,48.4,35.1,60,29.76,10.0,SSW,9.2,18.4,N/A,,Clear,210,2013-01-19 21:15:00
3:35 PM,49.5,35.1,58,29.76,10.0,SW,16.1,21.9,N/A,,Clear,220,2013-01-19 21:35:00
3:55 PM,48.7,34.7,58,29.77,10.0,SW,15.0,20.7,N/A,,Clear,220,2013-01-19 21:55:00
4:15 PM,47.7,35.1,62,29.77,10.0,SW,9.2,-,N/A,,Clear,220,2013-01-19 22:15:00
4:35 PM,46.6,35.6,66,29.78,10.0,SW,10.4,-,N/A,,Clear,220,2013-01-19 22:35:00
4:55 PM,45.1,35.6,69,29.78,10.0,SW,10.4,-,N/A,,Clear,220,2013-01-19 22:55:00
5:15 PM,44.8,35.8,71,29.79,10.0,SW,10.4,-,N/A,,Clear,220,2013-01-19 23:15:00
5:35 PM,44.1,35.6,72,29.80,10.0,SW,9.2,-,N/A,,Clear,220,2013-01-19 23:35:00
5:55 PM,43.2,35.6,75,29.80,10.0,SSW,9.2,-,N/A,,Clear,210,2013-01-19 23:55:00
6:15 PM,42.8,35.4,75,29.79,10.0,SW,10.4,-,N/A,,Clear,220,2013-01-20 00:15:00
6:35 PM,42.8,35.1,74,29.80,10.0,SW,9.2,-,N/A,,Clear,220,2013-01-20 00:35:00
6:55 PM,42.4,34.5,74,29.81,10.0,SW,8.1,17.3,N/A,,Clear,230,2013-01-20 00:55:00
7:15 PM,40.6,33.6,76,29.82,10.0,SW,10.4,-,N/A,,Clear,230,2013-01-20 01:15:00
7:35 PM,41.0,32.4,71,29.81,10.0,SW,10.4,-,N/A,,Clear,220,2013-01-20 01:35:00
7:55 PM,41.4,32.2,70,29.81,10.0,SW,11.5,17.3,N/A,,Clear,220,2013-01-20 01:55:00
8:15 PM,41.4,32.0,69,29.82,10.0,SW,11.5,19.6,N/A,,Clear,230,2013-01-20 02:15:00
8:35 PM,42.1,32.0,67,29.83,10.0,WSW,17.3,29.9,N/A,,Clear,240,2013-01-20 02:35:00
8:55 PM,41.0,32.0,70,29.84,10.0,WSW,15.0,21.9,N/A,,Clear,250,2013-01-20 02:55:00
9:15 PM,39.7,31.5,72,29.84,10.0,WSW,16.1,26.5,N/A,,Clear,250,2013-01-20 03:15:00
9:35 PM,39.7,30.0,68,29.85,10.0,WSW,20.7,29.9,N/A,,Clear,250,2013-01-20 03:35:00
9:55 PM,39.4,24.1,54,29.86,10.0,WSW,19.6,36.8,N/A,,Clear,250,2013-01-20 03:55:00
10:15 PM,37.9,21.7,52,29.87,10.0,West,23.0,35.7,N/A,,Clear,260,2013-01-20 04:15:00
10:35 PM,35.8,16.3,45,29.89,10.0,West,25.3,35.7,N/A,,Clear,260,2013-01-20 04:35:00
10:55 PM,32.4,13.3,45,29.91,10.0,WSW,24.2,40.3,N/A,,Clear,250,2013-01-20 04:55:00
11:15 PM,30.7,17.4,58,29.93,10.0,WSW,19.6,33.4,N/A,,Clear,250,2013-01-20 05:15:00
11:35 PM,29.7,18.0,62,29.94,10.0,West,16.1,25.3,N/A,,Clear,270,2013-01-20 05:35:00
11:55 PM,28.9,12.0,49,29.96,10.0,West,21.9,35.7,N/A,,Clear,260,2013-01-20 05:55:00